Flag for Cote d'Ivoire (Ivory Coast) Weather past 2 weeks in Abidjan, Cote d'Ivoire (Ivory Coast)

Now
82 °F

Passing clouds.


Feels Like: 92 °F
Forecast: N/A
Wind: 7 mph from Southwest

Location: Abidjan Airport

Current Time: Mar 2, 2015 at 9:46:52 PM

Latest Report: Mar 2, 2015 at 9:00 PM


Visibility: 5 mi

Pressure: 29.83 "Hg

Humidity: 89%

Dew point: 79 °F

Location of AbidjanLocation

Historic Weather in Abidjan — Graph

°F

Abidjan temperature yesterday

Maximum temperature yesterday: 93 °F (at 2:00 PM)
Minimum temperature yesterday: 81 °F (at 12:00 AM)
Average temperature yesterday: 83 °F

Past Weeks' High & Low Weather Summary

 TemperatureHumidityPressure
High93 °F (Mar 1, 2:00 PM)100% (Feb 19, 2:00 AM)29.95 "Hg (Feb 19, 2:00 AM)
Low75 °F (Feb 18, 7:00 AM)44% (Mar 1, 2:00 PM)29.74 "Hg (Feb 17, 5:30 PM)
Average82 °F85%29.83 "Hg
* Reported Feb 15 8:00 PM — Mar 2 8:00 PM, Abidjan, Weather by CustomWeather, © 2015

Note: Actual official high and low records may vary slightly from our data, if they occured in-between our weather recording intervals... More about our weather records

Advertising

Abidjan weather history for previous 24 hours

 ConditionsComfort  
Time TempWeatherWind HumidityBarometerVisibility
8:00 PM
Mon, Mar 2
82 °FPassing clouds.8 mph89%29.80 "Hg5 mi
7:30 PM82 °FPassing clouds.9 mph89%29.80 "Hg5 mi
7:00 PM82 °FPassing clouds.8 mph89%29.80 "Hg5 mi
6:30 PM84 °FPassing clouds.10 mph84%29.77 "Hg5 mi
6:00 PM84 °FPassing clouds.12 mph84%29.77 "Hg5 mi
5:30 PM84 °FPassing clouds.12 mph84%29.77 "Hg5 mi
5:00 PM86 °FPassing clouds.13 mph79%29.77 "Hg5 mi
4:30 PM86 °FPassing clouds.15 mph75%29.74 "Hg5 mi
4:00 PM88 °FPassing clouds.16 mph70%29.74 "Hg5 mi
3:30 PM88 °FPassing clouds.17 mph70%29.77 "Hg5 mi
3:00 PM88 °FPassing clouds.15 mph70%29.77 "Hg5 mi
2:30 PM88 °FPassing clouds.14 mph70%29.77 "HgN/A
2:00 PM88 °FScattered clouds.15 mph70%29.80 "HgN/A
1:30 PM90 °FScattered clouds.15 mph67%29.80 "HgN/A
1:00 PM91 °FScattered clouds.14 mph59%29.83 "HgN/A
12:30 PM90 °FScattered clouds.12 mph63%29.83 "HgN/A
12:00 PM90 °FScattered clouds.13 mph67%29.86 "HgN/A
11:30 AM88 °FScattered clouds.8 mph70%29.86 "HgN/A
11:00 AM88 °FScattered clouds.7 mph66%29.89 "HgN/A
10:30 AM86 °FScattered clouds.6 mph75%29.89 "HgN/A
10:00 AM86 °FScattered clouds.5 mph75%29.89 "HgN/A
9:30 AM86 °FPartly sunny.6 mph75%29.89 "HgN/A
9:00 AM84 °FPartly sunny.7 mph84%29.89 "HgN/A
8:30 AM82 °FScattered clouds.6 mph89%29.89 "HgN/A
8:00 AM82 °FScattered clouds.7 mph94%29.89 "Hg5 mi
7:30 AM82 °FScattered clouds.6 mph89%29.86 "Hg5 mi
7:00 AM81 °FPassing clouds.7 mph94%29.83 "Hg5 mi
6:30 AM81 °FPassing clouds.7 mph94%29.83 "Hg5 mi
6:00 AM81 °FPassing clouds.5 mph94%29.83 "Hg5 mi
5:30 AM81 °FPassing clouds.6 mph94%29.83 "Hg5 mi
5:00 AM81 °FPassing clouds.6 mph94%29.83 "Hg5 mi
4:30 AM81 °FPassing clouds.5 mph94%29.83 "Hg5 mi
4:00 AM81 °FPassing clouds.5 mph94%29.83 "Hg5 mi
3:30 AM81 °FPassing clouds.3 mph94%29.83 "Hg5 mi
3:00 AM81 °FPassing clouds.3 mph94%29.83 "Hg5 mi
2:30 AM81 °FPassing clouds.3 mph94%29.83 "Hg5 mi
2:00 AM81 °FPassing clouds.3 mph100%29.83 "Hg5 mi
1:30 AM81 °FPassing clouds.5 mph100%29.86 "Hg5 mi
1:00 AM81 °FPassing clouds.5 mph100%29.86 "Hg5 mi
12:30 AM81 °FPassing clouds.5 mph94%29.86 "Hg5 mi
12:00 AM81 °FPassing clouds.5 mph94%29.86 "Hg5 mi
11:30 PM
Sun, Mar 1
81 °FPassing clouds.5 mph94%29.86 "Hg5 mi
11:00 PM81 °FPassing clouds.5 mph94%29.86 "Hg5 mi
10:30 PM81 °FPassing clouds.5 mph94%29.86 "Hg5 mi
10:00 PM81 °FPassing clouds.5 mph94%29.86 "Hg5 mi
9:30 PM81 °FPassing clouds.3 mph94%29.86 "Hg5 mi
9:00 PM81 °FPassing clouds.5 mph94%29.86 "Hg5 mi
Weather by CustomWeather, © 2015

See weather overviewHow to use our weather pages